Weather History for Lisbon, Portugal

Change the Weather History Date:

Wednesday, January 29, 2014

  Actual Average Record
Temperature  
Mean Temperature 50 °F -  
Max Temperature 55 °F 57 °F 69 °F (1999)
Min Temperature 46 °F 45 °F 33 °F (2006)
Degree Days  
Heating Degree Days 14    
Moisture  
Dew Point 43 °F    
Average Humidity 79    
Maximum Humidity 87    
Minimum Humidity 67    
Precipitation  
Precipitation 0.00 in - - ()
Sea Level Pressure  
Sea Level Pressure 29.73 in    
Wind  
Wind Speed 12 mph ()    
Max Wind Speed 21 mph    
Max Gust Speed 36 mph    
Visibility 6.1 miles    
Events Rain    
Averages and records for this station are not official NWS values.
T = Trace of Precipitation, MM = Missing Value Source: Averaged Metar Reports

Daily Weather History Graph

Daily Weather History Graph

Search for Another Location

Airport:

Trip Planner

Search our weather history database for the weather conditions in past years. The results will help you decide how hot, cold, wet, or windy it might be!

Date:

Astronomy

Jan. 29, 2014 Rise Set
Actual Time 7:45 AM WET 5:54 PM WET
Civil Twilight 7:16 AM WET 6:22 PM WET
Nautical Twilight 6:44 AM WET 6:54 PM WET
Astronomical Twilight 6:13 AM WET 7:26 PM WET
Moon 6:09 AM WET (1/29) 4:38 PM WET (1/29)
Length of Visible Light 11h 05m
Length of Day
10h 09m
Waning Crescent, 3% of the Moon is Illuminated
Jan 29
Waning Crescent
Jan 30
New
Feb 6
First Quarter
Feb 14
Full
Feb 22
Last Quarter

Hourly Weather History & Observations

Time (WET) Temp. Windchill Dew Point Humidity Pressure Visibility Wind Dir Wind Speed Gust Speed Precip Events Conditions
12:00 AM 53.6 °F - 44.6 °F 72% 29.68 in 6.2 mi West 15.0 mph - N/A   Partly Cloudy
12:30 AM 53.6 °F - 46.4 °F 77% 29.68 in 5.6 mi WNW 13.8 mph - N/A Rain Light Rain Showers
1:00 AM 51.8 °F - 46.4 °F 82% 29.68 in 6.2 mi West 16.1 mph - N/A   Scattered Clouds
1:30 AM 53.6 °F - 42.8 °F 67% 29.65 in 6.2 mi West 17.3 mph - N/A   Scattered Clouds
2:00 AM 53.6 °F - 42.8 °F 67% 29.62 in 6.2 mi West 17.3 mph - N/A   Scattered Clouds
2:30 AM 50.0 °F - 46.4 °F 87% 29.65 in 5.0 mi WNW 18.4 mph 31.1 mph N/A Rain Rain Showers
3:00 AM 48.2 °F - 44.6 °F 87% 29.65 in 5.0 mi NW 17.3 mph - N/A Rain Light Rain Showers
3:30 AM 48.2 °F - 44.6 °F 87% 29.62 in 6.2 mi NW 16.1 mph 28.8 mph N/A Rain Light Rain Showers
4:00 AM 48.2 °F - 42.8 °F 82% 29.65 in 5.6 mi NW 18.4 mph - N/A Rain Light Rain Showers
4:30 AM 46.4 °F 40.4 °F 41.0 °F 81% 29.62 in 6.2 mi NW 13.8 mph - N/A   Scattered Clouds
5:00 AM 46.4 °F 41.1 °F 39.2 °F 76% 29.65 in 6.2 mi NW 11.5 mph 24.2 mph N/A   Partly Cloudy
5:30 AM 46.4 °F 40.7 °F 39.2 °F 76% 29.62 in 6.2 mi NW 12.7 mph - N/A   Partly Cloudy
6:00 AM 46.4 °F 41.1 °F 39.2 °F 76% 29.62 in 6.2 mi NW 11.5 mph - N/A   Scattered Clouds
6:30 AM 46.4 °F 41.9 °F 41.0 °F 81% 29.62 in 6.2 mi WNW 9.2 mph - N/A   Partly Cloudy
7:00 AM 46.4 °F 40.4 °F 41.0 °F 81% 29.62 in 6.2 mi NW 13.8 mph 25.3 mph N/A   Partly Cloudy
7:30 AM 46.4 °F 41.9 °F 42.8 °F 87% 29.62 in 6.2 mi NW 9.2 mph - N/A   Scattered Clouds
8:00 AM 48.2 °F - 42.8 °F 82% 29.65 in 6.2 mi NNW 6.9 mph - N/A   Partly Cloudy
8:30 AM 48.2 °F - 42.8 °F 82% 29.65 in 6.2 mi NW 5.8 mph - N/A Rain Light Rain Showers
9:00 AM 48.2 °F - 44.6 °F 87% 29.68 in 6.2 mi NNW 10.4 mph - N/A   Partly Cloudy
9:30 AM 48.2 °F - 44.6 °F 87% 29.68 in 6.2 mi NNW 10.4 mph - N/A   Partly Cloudy
10:00 AM 51.8 °F - 46.4 °F 82% 29.68 in 6.2 mi NNW 6.9 mph - N/A   Partly Cloudy
10:30 AM 50.0 °F - 42.8 °F 76% 29.71 in 6.2 mi NW 13.8 mph 26.5 mph N/A Rain Light Rain Showers
11:00 AM 50.0 °F - 44.6 °F 82% 29.71 in 6.2 mi NNW 8.1 mph - N/A   Partly Cloudy
11:30 AM 51.8 °F - 44.6 °F 76% 29.71 in 6.2 mi NNW 11.5 mph - N/A   Partly Cloudy
12:00 PM 51.8 °F - 44.6 °F 76% 29.74 in 6.2 mi North 15.0 mph - N/A   Partly Cloudy
12:30 PM 51.8 °F - 44.6 °F 76% 29.74 in 6.2 mi North 16.1 mph - N/A   Partly Cloudy
1:00 PM 53.6 °F - 42.8 °F 67% 29.74 in 6.2 mi North 17.3 mph - N/A   Partly Cloudy
1:30 PM 51.8 °F - 42.8 °F 71% 29.71 in 6.2 mi NNW 17.3 mph - N/A   Partly Cloudy
2:00 PM 53.6 °F - 44.6 °F 72% 29.71 in 6.2 mi NNW 11.5 mph - N/A   Partly Cloudy
2:30 PM 55.4 °F - 44.6 °F 67% 29.74 in 6.2 mi North 17.3 mph - N/A Rain Light Rain Showers
3:00 PM 51.8 °F - 44.6 °F 76% 29.74 in 6.2 mi NNW 11.5 mph - N/A   Partly Cloudy
3:30 PM 51.8 °F - 44.6 °F 76% 29.74 in 6.2 mi North 16.1 mph - N/A   Partly Cloudy
4:00 PM 51.8 °F - 44.6 °F 76% 29.74 in 6.2 mi North 13.8 mph - N/A   Partly Cloudy
4:30 PM 50.0 °F - 44.6 °F 82% 29.77 in 6.2 mi North 20.7 mph 35.7 mph N/A   Scattered Clouds
5:00 PM 50.0 °F - 44.6 °F 82% 29.77 in 6.2 mi NNW 5.8 mph - N/A   Scattered Clouds
5:30 PM 50.0 °F - 44.6 °F 82% 29.77 in 6.2 mi NNW 11.5 mph - N/A   Partly Cloudy
6:00 PM 50.0 °F - 44.6 °F 82% 29.80 in 6.2 mi NNW 10.4 mph - N/A   Scattered Clouds
6:30 PM 50.0 °F - 44.6 °F 82% 29.80 in 6.2 mi NNW 8.1 mph - N/A Rain Light Rain Showers
7:00 PM 50.0 °F - 42.8 °F 76% 29.83 in 6.2 mi NNW 6.9 mph - N/A   Partly Cloudy
7:30 PM 48.2 °F - 42.8 °F 82% 29.83 in 6.2 mi NNW 11.5 mph - N/A   Partly Cloudy
8:00 PM 48.2 °F - 42.8 °F 82% 29.86 in 6.2 mi NNW 6.9 mph - N/A   Partly Cloudy
8:30 PM 48.2 °F - 42.8 °F 82% 29.86 in 6.2 mi NNW 9.2 mph - N/A   Partly Cloudy
9:00 PM 48.2 °F - 42.8 °F 82% 29.86 in 6.2 mi NNW 8.1 mph - N/A   Partly Cloudy
9:30 PM 48.2 °F - 42.8 °F 82% 29.89 in 6.2 mi North 12.7 mph - N/A   Partly Cloudy
10:00 PM 48.2 °F - 42.8 °F 82% 29.89 in 6.2 mi NNW 6.9 mph - N/A   Partly Cloudy
10:30 PM 48.2 °F - 42.8 °F 82% 29.89 in 6.2 mi NNW 6.9 mph - N/A   Partly Cloudy
11:00 PM 46.4 °F 43.5 °F 41.0 °F 81% 29.89 in 6.2 mi North 5.8 mph - N/A   Partly Cloudy
11:30 PM 46.4 °F 45.2 °F 42.8 °F 87% 29.89 in 6.2 mi NNW 3.5 mph - N/A   Partly Cloudy